Regional Weather Roundup
Issued by NWS

Home | Current Version | Previous Version | Graphics & Text | Print | Product List | Glossary On
Versions: 1 2 3 4 5 6 7 8 9 10 11 12 13 14 15 16 17 18 19 20 21 22 23 24 25 26 27 28 29 30 31 32 33 34 35 36 37 38 39 40 41 42 43 44 45 46 47 48 49 50
918
ASUS45 KBOI 260710
RWRID

IDAHO REGIONAL WEATHER ROUNDUP
NATIONAL WEATHER SERVICE BOISE ID
100 AM MDT MON SEP 26 2016

NOTE: "FAIR" INDICATES FEW OR NO CLOUDS BELOW 12000 FEET
WITH NO SIGNIFICANT WEATHER AND/OR OBSTRUCTIONS TO VISIBILITY

IDZ012-014-260800-
SOUTHWEST IDAHO


CITY           SKY/WX    TMP DP  RH WIND       PRES   REMARKS
BOISE          CLEAR     58  39  49 SE9       30.35S
CALDWELL       CLEAR     52  38  58 E5        30.34S
MOUNTAIN HOME  CLEAR     50  40  68 E3        30.36F
$$

IDZ016-017-260800-
SOUTHCENTRAL IDAHO


CITY           SKY/WX    TMP DP  RH WIND       PRES   REMARKS
BURLEY         CLEAR     46  43  89 S3        30.42S
JEROME         CLEAR     51  37  58 E8        30.42S
TWIN FALLS     CLEAR     52  34  50 S12       30.42F
$$

IDZ019>023-260800-
SOUTHEAST IDAHO


CITY           SKY/WX    TMP DP  RH WIND       PRES   REMARKS
IDAHO FALLS    CLEAR     44  39  82 CALM      30.46S
POCATELLO      CLEAR     47  37  68 E3        30.46R
REXBURG        CLEAR     43  40  89 NE6       30.46F
$$

IDZ006-010-011-018-031-032-260800-
CENTRAL IDAHO MOUNTAINS


CITY           SKY/WX    TMP DP  RH WIND       PRES   REMARKS
MCCALL         CLEAR     47  40  76 NE3       30.45S
HAILEY         CLEAR     48  41  76 NW9       30.48S
STANLEY          N/A     39  36  89 CALM      30.55R
SALMON         CLEAR     45  37  76 S3        30.44S
CHALLIS        CLEAR     50  39  66 CALM      30.47R
$$

IDZ002-004-006-007-026-260800-
NORTHERN IDAHO


CITY           SKY/WX    TMP DP  RH WIND       PRES   REMARKS
LEWISTON       CLEAR     59  35  40 SE5       30.31S
LOWELL           N/A     50  46  86 CALM      30.42R
COEUR D`ALENE  NOT AVBL
MULLAN PASS    CLEAR     48  38  68 S7        30.48F
$$




USA.gov is the U.S. government's official web portal to all federal, state and local government web resources and services.